contact:dominique.lefevre@mio.osupytheas.fr, maurice.libes@osupytheas.fr, didier.mallarino@osupytheas.fr
Project:EMSO http://www.emso-fr.org/EMSO-France
Depth: 2436.0 m
Title:EMSO Ligure Ouest : Data MII capteur CSTAR
DateTime,Latitude,Longitude,Instrument_Serial,Reference_Counts,Signal_Counts,Corrected_Signal_raw_counts,Calculated_Beam_c_inverse_meters,Internal_thermistor_counts
DateTime,Latitude,Longitude,Instrument_Serial,Reference_Counts,Signal_Counts,Corrected_Signal_raw_counts,Calculated_Beam_c_inverse_meters,Internal_thermistor_counts
2019-08-18T00:02:11,42.805,6.029,CST-1368DR,8264,11557,15410,0.053,551
2019-08-18T00:05:13,42.805,6.029,CST-1368DR,8264,11566,15423,0.050,551
2019-08-18T00:08:15,42.805,6.029,CST-1368DR,8264,11564,15420,0.051,551
2019-08-18T00:11:16,42.805,6.029,CST-1368DR,8264,11567,15424,0.049,551
2019-08-18T00:14:18,42.805,6.029,CST-1368DR,8264,11568,15424,0.049,551
2019-08-18T00:17:20,42.805,6.029,CST-1368DR,8264,11565,15420,0.051,551
2019-08-18T00:20:21,42.805,6.029,CST-1368DR,8264,11567,15424,0.049,550
2019-08-18T00:23:23,42.805,6.029,CST-1368DR,8264,11565,15421,0.050,551
2019-08-18T00:26:24,42.805,6.029,CST-1368DR,8264,11566,15422,0.050,551
2019-08-18T00:29:26,42.805,6.029,CST-1368DR,8263,11566,15424,0.049,551
2019-08-18T00:32:28,42.805,6.029,CST-1368DR,8263,11563,15420,0.051,551
2019-08-18T00:35:29,42.805,6.029,CST-1368DR,8263,11567,15425,0.049,551
2019-08-18T00:38:31,42.805,6.029,CST-1368DR,8263,11564,15422,0.050,551
2019-08-18T00:41:33,42.805,6.029,CST-1368DR,8263,11562,15419,0.051,550
2019-08-18T00:44:34,42.805,6.029,CST-1368DR,8263,11553,15407,0.054,551
2019-08-18T00:47:36,42.805,6.029,CST-1368DR,8263,11560,15416,0.052,551
2019-08-18T00:50:38,42.805,6.029,CST-1368DR,8263,11564,15421,0.050,550
2019-08-18T00:53:39,42.805,6.029,CST-1368DR,8263,11563,15420,0.051,551
2019-08-18T00:56:41,42.805,6.029,CST-1368DR,8263,11565,15423,0.050,551
2019-08-18T00:59:42,42.805,6.029,CST-1368DR,8263,11563,15420,0.051,551
2019-08-18T01:02:44,42.805,6.029,CST-1368DR,8263,11566,15424,0.049,551
2019-08-18T01:05:46,42.805,6.029,CST-1368DR,8263,11565,15422,0.050,551
2019-08-18T01:08:47,42.805,6.029,CST-1368DR,8263,11565,15423,0.050,551
2019-08-18T01:11:49,42.805,6.029,CST-1368DR,8263,11564,15421,0.050,551
2019-08-18T01:14:51,42.805,6.029,CST-1368DR,8263,11565,15422,0.050,551
2019-08-18T01:17:52,42.805,6.029,CST-1368DR,8263,11565,15422,0.050,551
2019-08-18T01:20:54,42.805,6.029,CST-1368DR,8263,11565,15422,0.050,551
2019-08-18T01:23:56,42.805,6.029,CST-1368DR,8263,11566,15424,0.049,551
2019-08-18T01:26:57,42.805,6.029,CST-1368DR,8263,11566,15424,0.049,551
2019-08-18T01:29:59,42.805,6.029,CST-1368DR,8263,11564,15422,0.050,551
2019-08-18T01:33:01,42.805,6.029,CST-1368DR,8263,11562,15419,0.051,551
2019-08-18T01:36:02,42.805,6.029,CST-1368DR,8263,11562,15418,0.051,551
2019-08-18T01:39:04,42.805,6.029,CST-1368DR,8263,11565,15422,0.050,550
2019-08-18T01:42:06,42.805,6.029,CST-1368DR,8263,11565,15423,0.050,551
2019-08-18T01:45:07,42.805,6.029,CST-1368DR,8263,11565,15422,0.050,550
2019-08-18T01:48:09,42.805,6.029,CST-1368DR,8263,11567,15425,0.049,551
2019-08-18T01:51:10,42.805,6.029,CST-1368DR,8263,11567,15425,0.049,551
2019-08-18T01:54:12,42.805,6.029,CST-1368DR,8263,11566,15424,0.049,551
2019-08-18T01:57:14,42.805,6.029,CST-1368DR,8263,11567,15425,0.049,551
2019-08-18T02:00:15,42.805,6.029,CST-1368DR,8263,11565,15422,0.050,551
2019-08-18T02:03:17,42.805,6.029,CST-1368DR,8263,11562,15418,0.051,550
2019-08-18T02:06:19,42.805,6.029,CST-1368DR,8263,11566,15424,0.049,551
2019-08-18T02:09:20,42.805,6.029,CST-1368DR,8263,11564,15421,0.050,551
2019-08-18T02:12:22,42.805,6.029,CST-1368DR,8263,11565,15422,0.050,550
2019-08-18T02:15:23,42.805,6.029,CST-1368DR,8263,11561,15417,0.051,551
2019-08-18T02:18:25,42.805,6.029,CST-1368DR,8263,11565,15423,0.050,551
2019-08-18T02:21:27,42.805,6.029,CST-1368DR,8262,11560,15417,0.051,551
2019-08-18T02:24:29,42.805,6.029,CST-1368DR,8262,11565,15424,0.049,550
2019-08-18T02:27:30,42.805,6.029,CST-1368DR,8262,11565,15424,0.049,551
2019-08-18T02:30:32,42.805,6.029,CST-1368DR,8262,11564,15423,0.050,551
2019-08-18T02:33:34,42.805,6.029,CST-1368DR,8262,11557,15414,0.052,551
2019-08-18T02:36:35,42.805,6.029,CST-1368DR,8262,11561,15419,0.051,551
2019-08-18T02:39:37,42.805,6.029,CST-1368DR,8262,11566,15426,0.049,550
2019-08-18T02:42:39,42.805,6.029,CST-1368DR,8262,11565,15424,0.049,551
2019-08-18T02:45:40,42.805,6.029,CST-1368DR,8262,11565,15424,0.049,551
2019-08-18T02:48:42,42.805,6.029,CST-1368DR,8262,11566,15425,0.049,550
2019-08-18T02:51:44,42.805,6.029,CST-1368DR,8262,11565,15424,0.049,551
2019-08-18T02:54:45,42.805,6.029,CST-1368DR,8262,11565,15424,0.049,550
2019-08-18T02:57:48,42.805,6.029,CST-1368DR,8262,11566,15426,0.049,551
2019-08-18T03:00:49,42.805,6.029,CST-1368DR,8262,11565,15424,0.049,551
2019-08-18T03:03:51,42.805,6.029,CST-1368DR,8262,11564,15423,0.050,550
2019-08-18T03:06:53,42.805,6.029,CST-1368DR,8262,11565,15424,0.049,550
2019-08-18T03:09:54,42.805,6.029,CST-1368DR,8262,11565,15424,0.049,551
2019-08-18T03:12:56,42.805,6.029,CST-1368DR,8262,11565,15424,0.049,551
2019-08-18T03:15:57,42.805,6.029,CST-1368DR,8262,11563,15422,0.050,551
2019-08-18T03:18:59,42.805,6.029,CST-1368DR,8262,11564,15423,0.050,551
2019-08-18T03:22:01,42.805,6.029,CST-1368DR,8262,11565,15424,0.049,550
2019-08-18T03:25:02,42.805,6.029,CST-1368DR,8262,11564,15422,0.050,551
2019-08-18T03:28:04,42.805,6.029,CST-1368DR,8262,11566,15425,0.049,550
2019-08-18T03:31:06,42.805,6.029,CST-1368DR,8262,11565,15424,0.049,551
2019-08-18T03:34:07,42.805,6.029,CST-1368DR,8262,11566,15425,0.049,551
2019-08-18T03:37:09,42.805,6.029,CST-1368DR,8262,11565,15424,0.049,550
2019-08-18T03:40:11,42.805,6.029,CST-1368DR,8262,11564,15423,0.050,551
2019-08-18T03:43:12,42.805,6.029,CST-1368DR,8262,11557,15414,0.052,551
2019-08-18T03:46:14,42.805,6.029,CST-1368DR,8262,11562,15420,0.051,551
2019-08-18T03:49:15,42.805,6.029,CST-1368DR,8262,11563,15422,0.050,551
2019-08-18T03:52:17,42.805,6.029,CST-1368DR,8262,11563,15422,0.050,551
2019-08-18T03:55:19,42.805,6.029,CST-1368DR,8262,11564,15423,0.050,551
2019-08-18T03:58:20,42.805,6.029,CST-1368DR,8262,11561,15419,0.051,551
2019-08-18T04:01:22,42.805,6.029,CST-1368DR,8262,11562,15420,0.051,550
2019-08-18T04:04:24,42.805,6.029,CST-1368DR,8262,11554,15409,0.053,551
2019-08-18T04:07:25,42.805,6.029,CST-1368DR,8262,11561,15419,0.051,551
2019-08-18T04:10:27,42.805,6.029,CST-1368DR,8261,11562,15422,0.050,550
2019-08-18T04:13:29,42.805,6.029,CST-1368DR,8261,11561,15420,0.051,551
2019-08-18T04:16:30,42.805,6.029,CST-1368DR,8261,11560,15419,0.051,551
2019-08-18T04:19:32,42.805,6.029,CST-1368DR,8262,11561,15419,0.051,551
2019-08-18T04:22:33,42.805,6.029,CST-1368DR,8261,11562,15422,0.050,551
2019-08-18T04:25:35,42.805,6.029,CST-1368DR,8261,11563,15423,0.050,550
2019-08-18T04:28:37,42.805,6.029,CST-1368DR,8261,11559,15418,0.051,550
2019-08-18T04:31:38,42.805,6.029,CST-1368DR,8261,11563,15423,0.050,551
2019-08-18T04:34:40,42.805,6.029,CST-1368DR,8261,11558,15417,0.051,551
2019-08-18T04:37:42,42.805,6.029,CST-1368DR,8261,11557,15415,0.052,551
2019-08-18T04:40:43,42.805,6.029,CST-1368DR,8261,11563,15423,0.050,551
2019-08-18T04:43:45,42.805,6.029,CST-1368DR,8261,11563,15423,0.050,551
2019-08-18T04:46:46,42.805,6.029,CST-1368DR,8261,11563,15424,0.049,551
2019-08-18T04:49:48,42.805,6.029,CST-1368DR,8261,11562,15422,0.050,550
2019-08-18T04:52:50,42.805,6.029,CST-1368DR,8261,11563,15423,0.050,551
2019-08-18T04:55:51,42.805,6.029,CST-1368DR,8261,11563,15423,0.050,551
2019-08-18T04:58:53,42.805,6.029,CST-1368DR,8261,11564,15424,0.049,551
2019-08-18T05:01:55,42.805,6.029,CST-1368DR,8261,11565,15426,0.049,551
2019-08-18T05:04:56,42.805,6.029,CST-1368DR,8261,11564,15424,0.049,551
2019-08-18T05:07:58,42.805,6.029,CST-1368DR,8261,11563,15424,0.049,550
2019-08-18T05:11:00,42.805,6.029,CST-1368DR,8261,11563,15423,0.050,551
2019-08-18T05:14:01,42.805,6.029,CST-1368DR,8261,11563,15423,0.050,551
2019-08-18T05:17:03,42.805,6.029,CST-1368DR,8261,11560,15420,0.051,551
2019-08-18T05:20:05,42.805,6.029,CST-1368DR,8261,11563,15423,0.050,551
2019-08-18T05:23:06,42.805,6.029,CST-1368DR,8261,11564,15424,0.049,551
2019-08-18T05:26:08,42.805,6.029,CST-1368DR,8261,11560,15420,0.051,551
2019-08-18T05:29:10,42.805,6.029,CST-1368DR,8261,11564,15425,0.049,550
2019-08-18T05:32:11,42.805,6.029,CST-1368DR,8261,11564,15424,0.049,551
2019-08-18T05:35:13,42.805,6.029,CST-1368DR,8261,11564,15425,0.049,551
2019-08-18T05:38:14,42.805,6.029,CST-1368DR,8261,11563,15424,0.049,551
2019-08-18T05:41:16,42.805,6.029,CST-1368DR,8261,11563,15424,0.049,551
2019-08-18T05:44:18,42.805,6.029,CST-1368DR,8261,11564,15424,0.049,550
2019-08-18T05:47:19,42.805,6.029,CST-1368DR,8261,11562,15421,0.050,551
2019-08-18T05:50:21,42.805,6.029,CST-1368DR,8261,11564,15424,0.049,551
2019-08-18T05:53:23,42.805,6.029,CST-1368DR,8261,11561,15421,0.050,551
2019-08-18T05:56:25,42.805,6.029,CST-1368DR,8261,11562,15422,0.050,551
2019-08-18T05:59:26,42.805,6.029,CST-1368DR,8261,11562,15421,0.050,551
2019-08-18T06:02:28,42.805,6.029,CST-1368DR,8261,11562,15422,0.050,551
2019-08-18T06:05:30,42.805,6.029,CST-1368DR,8261,11559,15418,0.051,551
2019-08-18T06:08:31,42.805,6.029,CST-1368DR,8261,11563,15423,0.050,551
2019-08-18T06:11:33,42.805,6.029,CST-1368DR,8261,11563,15424,0.049,551
2019-08-18T06:14:35,42.805,6.029,CST-1368DR,8261,11564,15424,0.049,551
2019-08-18T06:17:36,42.805,6.029,CST-1368DR,8261,11562,15422,0.050,551
2019-08-18T06:20:38,42.805,6.029,CST-1368DR,8261,11562,15422,0.050,551
2019-08-18T06:23:40,42.805,6.029,CST-1368DR,8261,11559,15418,0.051,551
2019-08-18T06:26:41,42.805,6.029,CST-1368DR,8261,11560,15420,0.051,550
2019-08-18T06:29:43,42.805,6.029,CST-1368DR,8261,11563,15423,0.050,550
2019-08-18T06:32:44,42.805,6.029,CST-1368DR,8260,11561,15423,0.050,551
2019-08-18T06:35:46,42.805,6.029,CST-1368DR,8261,11562,15422,0.050,551
2019-08-18T06:38:48,42.805,6.029,CST-1368DR,8261,11560,15419,0.051,551
2019-08-18T06:41:49,42.805,6.029,CST-1368DR,8261,11560,15419,0.051,551
2019-08-18T06:44:51,42.805,6.029,CST-1368DR,8260,11556,15416,0.052,551
2019-08-18T06:47:53,42.805,6.029,CST-1368DR,8260,11562,15424,0.049,551
2019-08-18T06:50:54,42.805,6.029,CST-1368DR,8260,11558,15418,0.051,551
2019-08-18T06:53:57,42.805,6.029,CST-1368DR,8260,11561,15422,0.050,551
2019-08-18T06:56:58,42.805,6.029,CST-1368DR,8260,11560,15422,0.050,551
2019-08-18T07:00:00,42.805,6.029,CST-1368DR,8260,11560,15421,0.050,550
2019-08-18T07:03:01,42.805,6.029,CST-1368DR,8260,11560,15421,0.050,551
2019-08-18T07:06:03,42.805,6.029,CST-1368DR,8260,11562,15423,0.050,551
2019-08-18T07:09:05,42.805,6.029,CST-1368DR,8260,11557,15418,0.051,551
2019-08-18T07:12:06,42.805,6.029,CST-1368DR,8260,11557,15417,0.051,551
2019-08-18T07:15:08,42.805,6.029,CST-1368DR,8260,11560,15421,0.050,550
2019-08-18T07:18:10,42.805,6.029,CST-1368DR,8260,11560,15421,0.050,551
2019-08-18T07:21:11,42.805,6.029,CST-1368DR,8260,11560,15421,0.050,550
2019-08-18T07:24:13,42.805,6.029,CST-1368DR,8260,11561,15423,0.050,551
2019-08-18T07:27:15,42.805,6.029,CST-1368DR,8260,11562,15423,0.050,551
2019-08-18T07:30:16,42.805,6.029,CST-1368DR,8260,11561,15422,0.050,551
2019-08-18T07:33:18,42.805,6.029,CST-1368DR,8260,11560,15421,0.050,550
2019-08-18T07:36:20,42.805,6.029,CST-1368DR,8260,11558,15419,0.051,551
2019-08-18T07:39:21,42.805,6.029,CST-1368DR,8260,11558,15419,0.051,551
2019-08-18T07:42:23,42.805,6.029,CST-1368DR,8260,11558,15418,0.051,551
2019-08-18T07:45:25,42.805,6.029,CST-1368DR,8260,11556,15416,0.052,551
2019-08-18T07:48:26,42.805,6.029,CST-1368DR,8260,11559,15420,0.051,551
2019-08-18T07:51:28,42.805,6.029,CST-1368DR,8260,11560,15421,0.050,550
2019-08-18T07:54:30,42.805,6.029,CST-1368DR,8260,11559,15420,0.051,551
2019-08-18T07:57:31,42.805,6.029,CST-1368DR,8260,11559,15420,0.051,551
2019-08-18T08:00:33,42.805,6.029,CST-1368DR,8260,11558,15419,0.051,551
2019-08-18T08:03:35,42.805,6.029,CST-1368DR,8260,11560,15421,0.050,551
2019-08-18T08:06:36,42.805,6.029,CST-1368DR,8260,11557,15418,0.051,550
2019-08-18T08:09:38,42.805,6.029,CST-1368DR,8260,11558,15418,0.051,550
2019-08-18T08:12:40,42.805,6.029,CST-1368DR,8260,11558,15419,0.051,551
2019-08-18T08:15:41,42.805,6.029,CST-1368DR,8260,11559,15420,0.051,550
2019-08-18T08:18:43,42.805,6.029,CST-1368DR,8260,11556,15416,0.052,551
2019-08-18T08:21:45,42.805,6.029,CST-1368DR,8260,11560,15421,0.050,551
2019-08-18T08:24:46,42.805,6.029,CST-1368DR,8260,11561,15422,0.050,551
2019-08-18T08:27:49,42.805,6.029,CST-1368DR,8260,11561,15423,0.050,550
2019-08-18T08:30:50,42.805,6.029,CST-1368DR,8260,11554,15413,0.052,551
2019-08-18T08:33:52,42.805,6.029,CST-1368DR,8260,11558,15418,0.051,550
2019-08-18T08:36:54,42.805,6.029,CST-1368DR,8260,11560,15421,0.050,550
2019-08-18T08:39:55,42.805,6.029,CST-1368DR,8260,11560,15422,0.050,551
2019-08-18T08:42:57,42.805,6.029,CST-1368DR,8260,11560,15421,0.050,551
2019-08-18T08:45:59,42.805,6.029,CST-1368DR,8259,11558,15421,0.050,551
2019-08-18T08:49:00,42.805,6.029,CST-1368DR,8259,11561,15424,0.049,551
2019-08-18T08:52:02,42.805,6.029,CST-1368DR,8259,11560,15423,0.050,551
2019-08-18T08:55:03,42.805,6.029,CST-1368DR,8259,11560,15422,0.050,551
2019-08-18T08:58:05,42.805,6.029,CST-1368DR,8259,11560,15423,0.050,551
2019-08-18T09:01:07,42.805,6.029,CST-1368DR,8259,11559,15422,0.050,551
2019-08-18T09:04:08,42.805,6.029,CST-1368DR,8259,11560,15423,0.050,550
2019-08-18T09:07:10,42.805,6.029,CST-1368DR,8259,11557,15419,0.051,551
2019-08-18T09:10:12,42.805,6.029,CST-1368DR,8259,11556,15418,0.051,551
2019-08-18T09:13:13,42.805,6.029,CST-1368DR,8259,11558,15420,0.051,551
2019-08-18T09:16:15,42.805,6.029,CST-1368DR,8259,11558,15420,0.051,551
2019-08-18T09:19:17,42.805,6.029,CST-1368DR,8259,11558,15420,0.051,551
2019-08-18T09:22:18,42.805,6.029,CST-1368DR,8259,11558,15421,0.050,551
2019-08-18T09:25:20,42.805,6.029,CST-1368DR,8259,11556,15417,0.051,551
2019-08-18T09:28:21,42.805,6.029,CST-1368DR,8259,11559,15422,0.050,550
2019-08-18T09:31:23,42.805,6.029,CST-1368DR,8259,11559,15421,0.050,551
2019-08-18T09:34:25,42.805,6.029,CST-1368DR,8259,11556,15417,0.051,551
2019-08-18T09:37:26,42.805,6.029,CST-1368DR,8259,11559,15421,0.050,551
2019-08-18T09:40:28,42.805,6.029,CST-1368DR,8259,11557,15418,0.051,550
2019-08-18T09:43:30,42.805,6.029,CST-1368DR,8259,11559,15422,0.050,551
2019-08-18T09:46:31,42.805,6.029,CST-1368DR,8259,11560,15423,0.050,551
2019-08-18T09:49:33,42.805,6.029,CST-1368DR,8259,11558,15420,0.051,551
2019-08-18T09:52:34,42.805,6.029,CST-1368DR,8259,11554,15414,0.052,551
2019-08-18T09:55:36,42.805,6.029,CST-1368DR,8259,11559,15422,0.050,551
2019-08-18T09:58:38,42.805,6.029,CST-1368DR,8259,11561,15424,0.049,551
2019-08-18T10:01:39,42.805,6.029,CST-1368DR,8259,11558,15420,0.051,550
2019-08-18T10:04:41,42.805,6.029,CST-1368DR,8259,11560,15423,0.050,551
2019-08-18T10:07:43,42.805,6.029,CST-1368DR,8258,11560,15425,0.049,551
2019-08-18T10:10:44,42.805,6.029,CST-1368DR,8258,11556,15419,0.051,551
2019-08-18T10:13:46,42.805,6.029,CST-1368DR,8258,11558,15422,0.050,551
2019-08-18T10:16:48,42.805,6.029,CST-1368DR,8259,11559,15422,0.050,551
2019-08-18T10:19:49,42.805,6.029,CST-1368DR,8258,11557,15421,0.050,551
2019-08-18T10:22:51,42.805,6.029,CST-1368DR,8258,11557,15421,0.050,550
2019-08-18T10:25:52,42.805,6.029,CST-1368DR,8258,11554,15417,0.051,551
2019-08-18T10:28:54,42.805,6.029,CST-1368DR,8258,11558,15421,0.050,550
2019-08-18T10:31:56,42.805,6.029,CST-1368DR,8258,11559,15423,0.050,551
2019-08-18T10:34:57,42.805,6.029,CST-1368DR,8258,11558,15422,0.050,551
2019-08-18T10:37:59,42.805,6.029,CST-1368DR,8258,11558,15422,0.050,551
2019-08-18T10:41:01,42.805,6.029,CST-1368DR,8258,11560,15425,0.049,551
2019-08-18T10:44:02,42.805,6.029,CST-1368DR,8258,11557,15420,0.051,551
2019-08-18T10:47:04,42.805,6.029,CST-1368DR,8258,11559,15423,0.050,551
2019-08-18T10:50:06,42.805,6.029,CST-1368DR,8258,11559,15423,0.050,550
2019-08-18T10:53:07,42.805,6.029,CST-1368DR,8258,11557,15421,0.050,551
2019-08-18T10:56:09,42.805,6.029,CST-1368DR,8258,11557,15421,0.050,551
2019-08-18T10:59:11,42.805,6.029,CST-1368DR,8258,11558,15421,0.050,551
2019-08-18T11:02:12,42.805,6.029,CST-1368DR,8258,11558,15421,0.050,551
2019-08-18T11:05:14,42.805,6.029,CST-1368DR,8258,11558,15422,0.050,551
2019-08-18T11:08:15,42.805,6.029,CST-1368DR,8258,11558,15422,0.050,551
2019-08-18T11:11:17,42.805,6.029,CST-1368DR,8258,11555,15418,0.051,551
2019-08-18T11:14:19,42.805,6.029,CST-1368DR,8258,11556,15420,0.051,551
2019-08-18T11:17:20,42.805,6.029,CST-1368DR,8258,11559,15423,0.050,551
2019-08-18T11:20:22,42.805,6.029,CST-1368DR,8258,11558,15422,0.050,550
2019-08-18T11:23:24,42.805,6.029,CST-1368DR,8258,11558,15422,0.050,551
2019-08-18T11:26:25,42.805,6.029,CST-1368DR,8258,11559,15424,0.049,551
2019-08-18T11:29:27,42.805,6.029,CST-1368DR,8258,11558,15422,0.050,551
2019-08-18T11:32:29,42.805,6.029,CST-1368DR,8258,11558,15422,0.050,551
2019-08-18T11:35:30,42.805,6.029,CST-1368DR,8258,11559,15424,0.049,551
2019-08-18T11:38:32,42.805,6.029,CST-1368DR,8258,11558,15422,0.050,551
2019-08-18T11:41:33,42.805,6.029,CST-1368DR,8258,11559,15423,0.050,551
2019-08-18T11:44:35,42.805,6.029,CST-1368DR,8258,11558,15422,0.050,551
2019-08-18T11:47:37,42.805,6.029,CST-1368DR,8258,11549,15410,0.053,551
2019-08-18T11:50:38,42.805,6.029,CST-1368DR,8258,11556,15419,0.051,551
2019-08-18T11:53:40,42.805,6.029,CST-1368DR,8258,11559,15423,0.050,551
2019-08-18T11:56:42,42.805,6.029,CST-1368DR,8258,11558,15421,0.050,551
2019-08-18T11:59:43,42.805,6.029,CST-1368DR,8258,11557,15420,0.051,551
2019-08-18T12:02:45,42.805,6.029,CST-1368DR,8258,11559,15423,0.050,551
2019-08-18T12:05:47,42.805,6.029,CST-1368DR,8258,11558,15422,0.050,551
2019-08-18T12:08:48,42.805,6.029,CST-1368DR,8258,11557,15420,0.051,551
2019-08-18T12:11:50,42.805,6.029,CST-1368DR,8258,11559,15423,0.050,551
2019-08-18T12:14:52,42.805,6.029,CST-1368DR,8258,11559,15423,0.050,551
2019-08-18T12:17:53,42.805,6.029,CST-1368DR,8258,11558,15421,0.050,551
2019-08-18T12:20:55,42.805,6.029,CST-1368DR,8258,11558,15421,0.050,551
2019-08-18T12:23:57,42.805,6.029,CST-1368DR,8258,11558,15422,0.050,551
2019-08-18T12:26:58,42.805,6.029,CST-1368DR,8258,11559,15423,0.050,551
2019-08-18T12:30:00,42.805,6.029,CST-1368DR,8258,11558,15421,0.050,551
2019-08-18T12:33:01,42.805,6.029,CST-1368DR,8258,11559,15424,0.049,551
2019-08-18T12:36:03,42.805,6.029,CST-1368DR,8258,11557,15421,0.050,551
2019-08-18T12:39:05,42.805,6.029,CST-1368DR,8258,11556,15419,0.051,551
2019-08-18T12:42:06,42.805,6.029,CST-1368DR,8257,11558,15424,0.049,551
2019-08-18T12:45:08,42.805,6.029,CST-1368DR,8257,11557,15422,0.050,551
2019-08-18T12:48:10,42.805,6.029,CST-1368DR,8257,11558,15423,0.050,551
2019-08-18T12:51:11,42.805,6.029,CST-1368DR,8257,11559,15424,0.049,551
2019-08-18T12:54:13,42.805,6.029,CST-1368DR,8258,11556,15419,0.051,551
2019-08-18T12:57:14,42.805,6.029,CST-1368DR,8257,11556,15421,0.050,550
2019-08-18T13:00:16,42.805,6.029,CST-1368DR,8257,11557,15422,0.050,551
2019-08-18T13:03:18,42.805,6.029,CST-1368DR,8257,11556,15420,0.051,550
2019-08-18T13:06:19,42.805,6.029,CST-1368DR,8257,11550,15413,0.052,551
2019-08-18T13:09:21,42.805,6.029,CST-1368DR,8257,11555,15419,0.051,551
2019-08-18T13:12:23,42.805,6.029,CST-1368DR,8257,11554,15419,0.051,551
2019-08-18T13:15:24,42.805,6.029,CST-1368DR,8257,11558,15423,0.050,551
2019-08-18T13:18:26,42.805,6.029,CST-1368DR,8257,11557,15422,0.050,551
2019-08-18T13:21:28,42.805,6.029,CST-1368DR,8257,11556,15421,0.050,551
2019-08-18T13:24:29,42.805,6.029,CST-1368DR,8257,11558,15424,0.049,551
2019-08-18T13:27:31,42.805,6.029,CST-1368DR,8257,11556,15420,0.051,551
2019-08-18T13:30:32,42.805,6.029,CST-1368DR,8257,11557,15422,0.050,551
2019-08-18T13:33:34,42.805,6.029,CST-1368DR,8257,11557,15422,0.050,551
2019-08-18T13:36:36,42.805,6.029,CST-1368DR,8257,11558,15423,0.050,551
2019-08-18T13:39:37,42.805,6.029,CST-1368DR,8257,11559,15425,0.049,551
2019-08-18T13:42:39,42.805,6.029,CST-1368DR,8257,11558,15424,0.049,551
2019-08-18T13:45:41,42.805,6.029,CST-1368DR,8257,11556,15421,0.050,551
2019-08-18T13:48:42,42.805,6.029,CST-1368DR,8257,11557,15422,0.050,551
2019-08-18T13:51:44,42.805,6.029,CST-1368DR,8257,11556,15421,0.050,551
2019-08-18T13:54:45,42.805,6.029,CST-1368DR,8257,11557,15423,0.050,551
2019-08-18T13:57:48,42.805,6.029,CST-1368DR,8257,11556,15421,0.050,551
2019-08-18T14:00:50,42.805,6.029,CST-1368DR,8257,11557,15422,0.050,550
2019-08-18T14:03:51,42.805,6.029,CST-1368DR,8257,11556,15420,0.051,551
2019-08-18T14:06:53,42.805,6.029,CST-1368DR,8257,11558,15424,0.049,551
2019-08-18T14:09:54,42.805,6.029,CST-1368DR,8257,11557,15422,0.050,551
2019-08-18T14:12:56,42.805,6.029,CST-1368DR,8257,11548,15410,0.053,551
2019-08-18T14:15:58,42.805,6.029,CST-1368DR,8257,11556,15420,0.051,551
2019-08-18T14:18:59,42.805,6.029,CST-1368DR,8257,11556,15421,0.050,551
2019-08-18T14:22:01,42.805,6.029,CST-1368DR,8257,11556,15421,0.050,550
2019-08-18T14:25:03,42.805,6.029,CST-1368DR,8257,11551,15415,0.052,551
2019-08-18T14:28:04,42.805,6.029,CST-1368DR,8257,11555,15419,0.051,551
2019-08-18T14:31:06,42.805,6.029,CST-1368DR,8257,11553,15416,0.052,551
2019-08-18T14:34:07,42.805,6.029,CST-1368DR,8257,11551,15414,0.052,550
2019-08-18T14:37:09,42.805,6.029,CST-1368DR,8257,11556,15421,0.050,551
2019-08-18T14:40:11,42.805,6.029,CST-1368DR,8257,11554,15419,0.051,551
2019-08-18T14:43:12,42.805,6.029,CST-1368DR,8257,11555,15420,0.051,551
2019-08-18T14:46:14,42.805,6.029,CST-1368DR,8257,11557,15422,0.050,551
2019-08-18T14:49:16,42.805,6.029,CST-1368DR,8257,11556,15421,0.050,551
2019-08-18T14:52:17,42.805,6.029,CST-1368DR,8256,11554,15420,0.051,551
2019-08-18T14:55:19,42.805,6.029,CST-1368DR,8256,11557,15424,0.049,551
2019-08-18T14:58:21,42.805,6.029,CST-1368DR,8256,11552,15417,0.051,551
2019-08-18T15:01:22,42.805,6.029,CST-1368DR,8256,11557,15424,0.049,551
2019-08-18T15:04:24,42.805,6.029,CST-1368DR,8256,11555,15421,0.050,551
2019-08-18T15:07:25,42.805,6.029,CST-1368DR,8256,11556,15423,0.050,551
2019-08-18T15:10:27,42.805,6.029,CST-1368DR,8256,11557,15423,0.050,551
2019-08-18T15:13:29,42.805,6.029,CST-1368DR,8256,11556,15422,0.050,551
2019-08-18T15:16:30,42.805,6.029,CST-1368DR,8256,11556,15422,0.050,551
2019-08-18T15:19:32,42.805,6.029,CST-1368DR,8256,11551,15416,0.052,551
2019-08-18T15:22:34,42.805,6.029,CST-1368DR,8256,11556,15423,0.050,551
2019-08-18T15:25:35,42.805,6.029,CST-1368DR,8256,11554,15420,0.051,551
2019-08-18T15:28:37,42.805,6.029,CST-1368DR,8256,11556,15422,0.050,551
2019-08-18T15:31:39,42.805,6.029,CST-1368DR,8256,11548,15411,0.053,551
2019-08-18T15:34:40,42.805,6.029,CST-1368DR,8256,11551,15415,0.052,551
2019-08-18T15:37:42,42.805,6.029,CST-1368DR,8256,11554,15420,0.051,551
2019-08-18T15:40:43,42.805,6.029,CST-1368DR,8256,11557,15423,0.050,551
2019-08-18T15:43:45,42.805,6.029,CST-1368DR,8256,11556,15422,0.050,550
2019-08-18T15:46:47,42.805,6.029,CST-1368DR,8256,11557,15424,0.049,551
2019-08-18T15:49:48,42.805,6.029,CST-1368DR,8256,11557,15423,0.050,551
2019-08-18T15:52:50,42.805,6.029,CST-1368DR,8256,11554,15420,0.051,551
2019-08-18T15:55:52,42.805,6.029,CST-1368DR,8256,11554,15420,0.051,551
2019-08-18T15:58:53,42.805,6.029,CST-1368DR,8256,11555,15421,0.050,551
2019-08-18T16:01:55,42.805,6.029,CST-1368DR,8256,11554,15420,0.051,551
2019-08-18T16:04:57,42.805,6.029,CST-1368DR,8256,11554,15420,0.051,551
2019-08-18T16:07:58,42.805,6.029,CST-1368DR,8256,11556,15422,0.050,551
2019-08-18T16:11:00,42.805,6.029,CST-1368DR,8256,11556,15422,0.050,551
2019-08-18T16:14:01,42.805,6.029,CST-1368DR,8256,11556,15422,0.050,551
2019-08-18T16:17:03,42.805,6.029,CST-1368DR,8256,11555,15421,0.050,550
2019-08-18T16:20:05,42.805,6.029,CST-1368DR,8256,11556,15423,0.050,551
2019-08-18T16:23:06,42.805,6.029,CST-1368DR,8256,11555,15421,0.050,551
2019-08-18T16:26:08,42.805,6.029,CST-1368DR,8256,11554,15420,0.051,551
2019-08-18T16:29:10,42.805,6.029,CST-1368DR,8256,11551,15416,0.052,551
2019-08-18T16:32:11,42.805,6.029,CST-1368DR,8256,11553,15418,0.051,551
2019-08-18T16:35:13,42.805,6.029,CST-1368DR,8256,11550,15415,0.052,550
2019-08-18T16:38:15,42.805,6.029,CST-1368DR,8256,11554,15420,0.051,550